Regional Weather Roundup
Issued by NWS

Home | Current Version | Previous Version | Graphics & Text | Print | Product List | Glossary Off
Versions: 1 2 3 4 5 6 7 8 9 10 11 12 13 14 15 16 17 18 19 20 21 22 23 24 25 26 27 28 29 30 31 32 33 34 35 36 37 38 39 40 41 42 43 44 45 46 47 48 49 50

000
ASUS43 KMPX 200310
RWRMN
WEATHER ROUNDUP FOR MINNESOTA
NATIONAL WEATHER SERVICE TWIN CITIES/CHANHASSEN MN
1000 PM CDT WED JUL 19 2017


NOTE: "FAIR" INDICATES FEW OR NO CLOUDS BELOW 12,000 FEET WITH NO
SIGNIFICANT WEATHER AND/OR OBSTRUCTIONS TO VISIBILITY. N/A MEANS
CURRENT SKY AND/OR WEATHER CONDITIONS ARE NOT AVAILABLE.

MNZ060>063-068>070-200400-
   Twin Cities Metro

CITY           SKY/WX    TMP DP  RH WIND       PRES   REMARKS
TWIN CITIES    TSTM      72  66  81 E7        29.93R
ST PAUL        CLOUDY    70  69  97 SE7       29.94R THUNDER
CRYSTAL        CLOUDY    70  64  81 CALM      29.91R
LAKEVILLE      CLOUDY    70  70 100 SE3       29.91R THUNDER
EDEN PRAIRIE   LGT RAIN  70  68  93 NE6       29.89S FOG
SOUTH ST PAUL  CLOUDY    70  68  95 CALM      29.94R THUNDER
LAKE ELMO      CLOUDY    70  68  94 E3        29.95R
$$
MNZ001>005-007-008-013>017-022>024-027-028-200400-
   Northwest Minnesota

CITY           SKY/WX    TMP DP  RH WIND       PRES   REMARKS
BEMIDJI        CLEAR     71  63  75 S6        29.92R
HALLOCK        CLEAR     70  66  88 NW3       29.87R
ROSEAU         PTCLDY    72  64  78 W3        29.88R
WARROAD        PTCLDY    70  64  83 W3        29.88R
THIEF RVR FALL CLEAR     69  65  86 SW7       29.90R
CROOKSTON      CLEAR     72  66  83 SW5       29.88R
FOSSTON        CLEAR     66  63  88 S7        29.92R
DETROIT LAKES  CLEAR     70  64  83 CALM      29.96R
MOORHEAD       CLEAR     73  66  78 S5        29.92R
PARK RAPIDS    CLEAR     67  61  81 SW5       29.94R
MAHNOMEN       FAIR      69  65  89 S7        29.92R
$$
MNZ006-009>011-018-025>026-200400-
   North Central Minnesota

CITY           SKY/WX    TMP DP  RH WIND       PRES   REMARKS
BAUDETTE       CLOUDY    70  62  76 CALM      29.87R
FLAG ISLAND    CLEAR     68  63  83 W5        29.86R
INTL FALLS     CLOUDY    69  60  73 CALM      29.89R
WASKISH        CLOUDY    70  64  83 CALM      29.90R
BIG FORK       CLEAR     64  57  77 SW3       29.93R
LONGVILLE      CLEAR     63  61  94 CALM      29.94S
CRANE LAKE     CLOUDY    61  59  94 CALM      29.92S
ORR            CLEAR     64  57  77 S5        29.90R
COOK           CLOUDY    66  61  82 CALM      29.93R
WALKER         FAIR      68  61  77 SW6       29.93S
$$
MNZ012-019>021-037-200400-
   Northeast Minnesota

CITY           SKY/WX    TMP DP  RH WIND       PRES   REMARKS
DULUTH         PTCLDY    65  61  87 CALM      29.94S
ELY            PTCLDY    66  57  72 S5        29.94R
HIBBING        CLEAR     60  58  92 CALM      29.93R
EVELETH        CLEAR     63  58  86 CALM      29.95S
DULUTH HARBOR  CLEAR     63  59  88 E9        29.93S
TWO HARBORS    CLEAR     64  59  82 CALM      29.91F
SILVER BAY     CLEAR     61  59  94 CALM      29.92F
GRAND MARAIS     N/A     60  55  83 NE3       29.93S
G MARAIS ARPRT CLOUDY    63  52  67 CALM      29.98F
$$
MNZ029>031-032-039>041-046>048-054>057-064-200400-
   West Central Minnesota

CITY           SKY/WX    TMP DP  RH WIND       PRES   REMARKS
FERGUS FALLS   CLEAR     72  68  88 CALM      29.93R
WHEATON        PTCLDY    72  66  83 CALM      29.96R
MORRIS         CLOUDY    72  68  88 NE3       29.94R
ALEXANDRIA     PTCLDY    70  65  84 CALM      29.96S
ELBOW LAKE     MOCLDY    71  68  92 CALM      29.95R
WADENA         CLEAR     68  64  88 CALM      29.94S
GLENWOOD       PTCLDY    70  64  83 N3        29.96R
APPLETON       PTCLDY    75  68  78 NE5       29.93R
BENSON         CLOUDY    73  66  78 E7        29.95R
ORTONVILLE     CLOUDY    75  70  83 N5        29.94R
MADISON        PTCLDY    75  75 100 NE7       29.92R
WILLMAR        RAIN      72  70  94 NE6       29.95R
$$
MNZ033>034-036-042>043-049>051-058-059-200400-
   Central Minnesota

CITY           SKY/WX    TMP DP  RH WIND       PRES   REMARKS
ST CLOUD       CLOUDY    69  66  90 NE3       29.92F
SAUK CENTRE    FAIR      69  64  83 CALM      29.95R
PAYNESVILLE    TSTM      71  65  81 E3        29.94S
AITKIN         CLEAR     61  57  88 CALM      29.93S
PINE RIVER     CLEAR     66  63  88 CALM      29.97S
BRAINERD       CLEAR     66  62  87 S3        29.94S
STAPLES        CLEAR     68  61  77 CALM      29.94S
LONG PRAIRIE   MOCLDY    68  64  88 CALM      29.95S
LITTLE FALLS   MOCLDY    64  61  88 CALM      29.94S
LITCHFIELD     MOCLDY    72  68  88 CALM      29.94R
BUFFALO        CLOUDY    70  64  83 NE3       29.94R
MAPLE LAKE     CLOUDY    71  67  89 CALM      29.93S
HUTCHINSON     CLOUDY    71  70  97 N3        29.94R
$$
MNZ037-044-045-052-053-200400-
   East Central Minnesota

CITY           SKY/WX    TMP DP  RH WIND       PRES   REMARKS
PRINCETON      PTCLDY    68  64  88 N3        29.92F
MORA           PTCLDY    64  63  94 CALM      29.95F
CAMBRIDGE      CLEAR     68  61  77 CALM      29.91S
RUSH CITY      PTCLDY    66  62  85 CALM      29.92F
MOOSE LAKE     MOCLDY    63  61  94 CALM      29.92S
HINCKLEY       CLOUDY    68  64  88 CALM      29.94R
CLOQUET        CLEAR     66  59  77 CALM      29.94S
MCGREGOR       CLEAR     68  59  73 CALM      29.94S
$$
MNZ071>073-080-081-089-090-097-098-200400-
   Southwest Minnesota

CITY           SKY/WX    TMP DP  RH WIND       PRES   REMARKS
MONTEVIDEO     CLOUDY    72  66  83 E5        29.92S
GRANITE FALLS  CLOUDY    74  70  87 N6        29.92R
CANBY          CLOUDY    74  70  89 CALM      29.92S
MARSHALL       CLOUDY    73  71  93 E3        29.91S
REDWOOD FALLS  CLOUDY    72  68  87 NE5       29.89S
OLIVIA         TSTM      70  68  94 NE5       29.91R
PIPESTONE      CLOUDY    73  70  88 NE3       29.91S
WINDOM         CLOUDY    73  66  78 SE5       29.90S
WORTHINGTON    LGT RAIN  74  70  87 CALM      29.90F
JACKSON        CLOUDY    73  68  83 CALM      29.90F
TRACY          CLOUDY    72  72  99 CALM      29.91S
SLAYTON        HVY RAIN  71  67  87 CALM      29.92S
$$
MNZ065>067-074>077-082>085-091>093-200400-
   South Central Minnesota

CITY           SKY/WX    TMP DP  RH WIND       PRES   REMARKS
MANKATO        CLOUDY    70  67  90 CALM      29.90R
NEW ULM        CLOUDY    72  66  83 CALM      29.88F
ST JAMES       CLOUDY    70  68  94 CALM      29.89F
FAIRMONT       CLOUDY    72  70  93 S6        29.89F
GLENCOE        TSTM      71  71  99 N12       29.92R
FARIBAULT      CLOUDY    72  66  83 N6        29.92R
OWATONNA       CLOUDY    72  66  83 S6        29.89S
WASECA         PTCLDY    70  64  83 S5        29.89F
ALBERT LEA     CLOUDY    72  66  83 S7        29.90F
$$
MNZ078>079-086>088-094>096-200400-
   Southeast Minnesota

CITY           SKY/WX    TMP DP  RH WIND       PRES   REMARKS
ROCHESTER      CLOUDY    67  66  97 SE6       29.93F
RED WING       TSTM      70  66  88 W8        29.96R VSB 3/4
STANTON        CLOUDY    71  66  86 E9        29.92R
DODGE CENTER   CLOUDY    68  66  94 SE6       29.92R
WINONA         CLOUDY    72  68  88 CALM      29.96R
AUSTIN         CLOUDY    70  66  88 S3        29.91R
PRESTON        CLOUDY    66  64  95 CALM      29.94S
$$
ABBREVIATIONS USED IN REMARKS
   TC - TEMPERATURES IN CELSIUS
  WCI - WIND CHILL INDEX
   HX - HEAT INDEX
  VSB - VISIBILITY
$$



USA.gov is the U.S. government's official web portal to all federal, state and local government web resources and services.